Regional Weather Roundup
Issued by NWS Upton, NY

Current Version | Previous Version | Text Only | Print | Product List | Glossary Off
Versions: 1 2 3 4 5 6 7 8 9 10 11 12 13 14 15 16 17 18 19 20 21 22 23 24 25 26 27 28 29 30 31 32 33 34 35 36 37 38 39 40 41 42 43 44 45 46 47 48 49 50
667 ASUS41 KOKX 212008 RWROKX REGIONAL WEATHER ROUNDUP NATIONAL WEATHER SERVICE NEW YORK NY 300 PM EST TUE FEB 21 2017 NOTE: "FAIR" INDICATES FEW OR NO CLOUDS BELOW 12,000 FEET WITH NO SIGNIFICANT WEATHER AND/OR OBSTRUCTIONS TO VISIBILITY. NYZ071-072-176-178-NJZ106-104-212100- NEW YORK CITY METRO AREA CITY SKY/WX TMP DP RH WIND PRES REMARKS Central Park CLOUDY 44 30 57 VRB7G17 30.26F Wall St Helipt NOT AVBL LaGuardia APRT CLOUDY 46 30 53 S12 30.25F Kennedy INTL PTSUNNY 43 31 62 SE12 30.27F Breezy Point N/A 41 N/A N/A SE12 N/A Newark/Liberty CLOUDY 44 32 62 VRB7 30.24F Teterboro CLOUDY 47 31 53 S9 30.24F $$ NYZ177-179-078>081-212100- LONG ISLAND NEW YORK CITY SKY/WX TMP DP RH WIND PRES REMARKS Jones Beach N/A 39 N/A N/A SE8 N/A WCI 34 Matinecock PT NOT AVBL Farmingdale CLOUDY 43 29 57 SW8 30.27F MacArthur/ISP CLOUDY 43 29 57 SW13 30.26F Shirley CLOUDY 42 29 59 S7 30.28F Westhampton MOSUNNY 43 28 55 S7 30.28F Southampton NOT AVBL Bridgehampton NOT AVBL East Hampton N/A 41 28 60 S8 30.27F Montauk N/A 42 31 64 SE3 30.29F $$ NYZ052-065-067-212100- HUDSON VALLEY CITY SKY/WX TMP DP RH WIND PRES REMARKS White Plains CLOUDY 44 23 43 S9 30.22F Newburgh PTSUNNY 45 25 45 SW6 30.21F Montgomery MOSUNNY 47 26 44 S8 30.19F Poughkeepsie CLOUDY 46 21 37 S9G20 30.20F Albany CLOUDY 42 18 37 S16 30.17F $$ NJZ001-105-106-008-010-013-015-019>022-104-212100- NEW JERSEY CITY SKY/WX TMP DP RH WIND PRES REMARKS Newark/Liberty CLOUDY 44 32 62 VRB7 30.24F Teterboro CLOUDY 47 31 53 S9 30.24F Caldwell PTSUNNY 47 29 49 S10 30.23F Somerville CLOUDY 50 25 37 SE7 30.21F Linden NOT AVBL Sussex CLOUDY 47 26 44 S7 30.20F Andover N/A 46 27 47 VRB5 30.20F Trenton CLOUDY 50 27 40 SW9 30.22F Millville MOSUNNY 48 34 58 SE9 30.24F Atlantic City CLOUDY 48 30 49 SE9 30.25F Wrightstown CLOUDY 51 29 42 S6 30.20F Toms River PTSUNNY 46 31 55 SE12 30.25F Belmar CLOUDY 44 29 55 SE9 30.26F $$ PAZ047>061-062-071-212100- EASTERN PENNSYLVANIA CITY SKY/WX TMP DP RH WIND PRES REMARKS Philadelphia CLOUDY 51 29 42 SW10 30.23F Allentown MOSUNNY 50 27 40 S9 30.21F Scranton MOSUNNY 47 22 37 S9 30.15F $$ CTZ002-004>006-009-010-012-RIZ004-006-007-MAZ004-011-015-212100- SOUTHERN NEW ENGLAND IN CT CITY SKY/WX TMP DP RH WIND PRES REMARKS Bradley INTL CLOUDY 45 16 31 S13 30.22F Hartford MOSUNNY 45 17 32 S9 30.24F Danbury MOSUNNY 44 22 41 S8 30.23F Wtrbury/Oxford CLOUDY 43 18 36 W6 30.23F Bridgeport PTSUNNY 43 26 51 S6 30.26F Meriden MOSUNNY 44 18 35 S10 30.24F New Haven CLOUDY 42 23 46 SE6 30.26F Chester N/A 41 18 38 VRB5G12 30.24F Groton MOSUNNY 41 30 65 S8 30.27F Wilimantic CLOUDY 46 18 32 S9 30.24F IN RI CITY SKY/WX TMP DP RH WIND PRES REMARKS Providence PTSUNNY 43 21 41 SE12 30.26F Block Island MOSUNNY 40 27 59 S7 30.28F Westerly CLOUDY 42 27 55 S8 30.28F IN MA CITY SKY/WX TMP DP RH WIND PRES REMARKS Boston PTSUNNY 38 27 64 E14 30.26F WCI 30 Worcester CLOUDY 42 11 28 S9 30.20F Westfield MOSUNNY 43 17 35 S12 30.20F Provincetown CLOUDY 39 26 59 NE8 30.28F WCI 33 Nantucket CLOUDY 43 24 47 W3 30.27F $$ ANZ330-335-338-340-345-350-353-355-212100- COASTAL MARINE OBSERVATIONS STATION/POSITION TIME SKY/WX TEMP WIND PRES VSBY WAVE AIR SEA DIR/SP/G HT/PER (UTC) (F) (DEG/KT/KT) (MB) (MI) (FT/S) NY HARB ENTRANCE 1850 40 42 120/ 8/ 10 1025.4 2/ 5 20 S FIRE ISLAND 1850 42 43 150/ 6/ 6 1025.7 2/ 5 GREAT SOUTH BAY NOT AVBL 23 SSW MONTAUK P 1850 41 47 1026.5 2/ 8 15 E BARNEGAT LI 1930 43 N/A 3/ 6 HUDSON CANYON 1850 50 1025.9 3/ 6 KINGS POINT 1948 43 41 1024.3 EXECUTION ROCKS NOT AVBL CENTRAL LI SOUND 1853 39 40/ 2/ 4 N/A 0 EASTERN LI SOUND NOT AVBL ROBBINS REEF 1948 41 150/ 15/ 17 1024.4 $$ >>>>>>>>>>>>>>>>>>>>>>>>>>>> KEY <<<<<<<<<<<<<<<<<<<<<<<<<<< > < > SKY/WX - Sky Condition/Present Weather < > TMP - Temperature in Fahrenheit < > DP - Dew Point in Fahrenheit < > RH - Relative Humidity in Percent < > WIND - Direction (from) and Speed in MPH < > PRES - Mean Sea Level Pressure (inches of Hg) < > WCI - Wind Chill Index < > VSB - VISIBILITY IN MILES < > HX - HEAT INDEX < > TC - TEMPERATURE IN CELSIUS < > VRB - VARIABLE WIND DIRECTION < > < >>>>>>>>>>>>>>>>>>>>>>>>>>>> KEY <<<<<<<<<<<<<<<<<<<<<<<<<<<

USA.gov is the U.S. government's official web portal to all federal, state and local government web resources and services.